Flag for Qatar Weather past 2 weeks in Al Khor, Qatar

Now
86 °F

Sunny.


Feels Like: 83 °F
Forecast: 76 / 88 °F
Wind: 12 mph from Southeast

Location: Doha International Airport

Current Time: Mar 30, 2015 at 4:16:46 PM

Latest Report: Mar 30, 2015 at 3:00 PM


Visibility: 10 mi

Pressure: 29.80 "Hg

Humidity: 25%

Dew point: 46 °F

Location of Al KhorLocation

Historic Weather in Al Khor — Graph

°F

Al Khor temperature yesterday

Maximum temperature yesterday: 84 °F (at 1:30 PM)
Minimum temperature yesterday: 66 °F (at 6:00 AM)
Average temperature yesterday: 75 °F

Past Weeks' High & Low Weather Summary

 TemperatureHumidityPressure
High90 °F (Mar 21, 1:00 PM)94% (Mar 16, 3:00 AM)30.12 "Hg (Mar 16, 3:00 AM)
Low64 °F (Mar 24, 1:00 AM)16% (Mar 29, 12:00 PM)29.80 "Hg (Mar 22, 3:30 AM)
Average75 °F67%29.96 "Hg
* Reported Mar 15 3:00 PM — Mar 30 3:00 PM, Al Khor, Weather by CustomWeather, © 2015

Note: Actual official high and low records may vary slightly from our data, if they occured in-between our weather recording intervals... More about our weather records

Advertising

Al Khor weather history for previous 24 hours

 ConditionsComfort  
Time TempWeatherWind HumidityBarometerVisibility
3:00 PM
Mon, Mar 30
86 °FSunny.12 mph25%29.80 "Hg10 mi
2:00 PM84 °FSunny.10 mph35%29.83 "Hg10 mi
1:00 PM84 °FSunny.10 mph40%29.86 "Hg10 mi
12:00 PM86 °FPassing clouds.9 mph25%29.89 "HgN/A
11:30 AM82 °FSunny.12 mph26%29.89 "Hg10 mi
11:00 AM82 °FSunny.12 mph32%29.89 "Hg10 mi
10:00 AM82 °FPassing clouds.8 mph35%29.92 "HgN/A
9:30 AM81 °FSunny.9 mph45%29.92 "Hg10 mi
9:00 AM81 °FSunny.8 mph45%29.92 "Hg10 mi
8:30 AM79 °FSunny.6 mph61%29.92 "Hg10 mi
8:00 AM77 °FSunny.5 mph69%29.92 "Hg10 mi
7:00 AM73 °FSunny.5 mph78%29.92 "Hg10 mi
6:30 AM72 °FSunny.3 mph83%29.89 "Hg10 mi
5:30 AM70 °FSunny.2 mph83%29.89 "Hg10 mi
5:00 AM70 °FClear.2 mph78%29.86 "Hg10 mi
4:30 AM70 °FClear.1 mph78%29.86 "Hg10 mi
4:00 AM70 °FClear.No wind83%29.86 "Hg10 mi
3:00 AM72 °FClear.No wind73%29.86 "Hg10 mi
2:30 AM72 °FClear.1 mph69%29.86 "Hg10 mi
2:00 AM72 °FClear.1 mph73%29.89 "Hg10 mi
1:30 AM72 °FClear.2 mph78%29.89 "Hg10 mi
1:00 AM72 °FPassing clouds.6 mph78%29.89 "HgN/A
12:00 AM72 °FPassing clouds.3 mph78%29.92 "HgN/A
11:30 PM
Sun, Mar 29
72 °FClear.1 mph78%29.92 "Hg10 mi
11:00 PM72 °FClear.1 mph83%29.92 "Hg10 mi
10:30 PM72 °FPassing clouds.3 mph83%29.92 "HgN/A
10:00 PM73 °FClear.3 mph78%29.92 "Hg10 mi
9:30 PM72 °FClear.3 mph83%29.92 "Hg10 mi
9:00 PM72 °FClear.3 mph83%29.92 "Hg10 mi
8:00 PM73 °FClear.5 mph78%29.92 "Hg10 mi
7:00 PM73 °FClear.6 mph74%29.92 "Hg10 mi
6:00 PM75 °FClear.8 mph57%29.89 "Hg10 mi
5:00 PM77 °FSunny.9 mph57%29.89 "Hg10 mi
4:00 PM79 °FSunny.9 mph45%29.89 "Hg10 mi
Weather by CustomWeather, © 2015

See weather overviewHow to use our weather pages